Flag for Moldova Weather past 2 weeks in Tiraspol, Moldova

Now
90 °F

Sunny.


Feels Like: 88 °F
Forecast: 69 / 96 °F
Wind: 14 mph from Southwest

Location: Chisinau International Airport

Current Time: Sep 1, 2015 at 11:25:01 AM

Latest Report: Sep 1, 2015 at 11:00 AM


Visibility: 10 mi

Pressure: 29.98 "Hg

Humidity: 31%

Dew point: 55 °F

Location of TiraspolLocation

Historic Weather in Tiraspol — Graph

°F

Tiraspol temperature yesterday

Maximum temperature yesterday: 95 °F (at 2:30 PM)
Minimum temperature yesterday: 64 °F (at 6:30 AM)
Average temperature yesterday: 80 °F

Past Weeks' High & Low Weather Summary

 TemperatureHumidityPressure
High97 °F (Aug 29, 4:00 PM)88% (Aug 18, 10:00 PM)30.27 "Hg (Aug 18, 10:00 PM)
Low54 °F (Aug 25, 7:00 AM)15% (Aug 25, 4:30 PM)29.83 "Hg (Aug 17, 3:30 PM)
Average73 °F46%30.07 "Hg
* Reported Aug 17 10:00 AM — Sep 1 10:30 AM, Tiraspol, Weather by CustomWeather, © 2015

Note: Actual official high and low records may vary slightly from our data, if they occured in-between our weather recording intervals... More about our weather records

Advertising

Tiraspol weather history for previous 24 hours

 ConditionsComfort  
Time TempWeatherWind HumidityBarometerVisibility
10:30 AM
Tue, Sep 1
86 °FSunny.14 mph33%29.98 "Hg10 mi
10:00 AM84 °FSunny.12 mph35%29.98 "Hg10 mi
9:30 AM82 °FSunny.10 mph37%29.98 "Hg10 mi
9:00 AM81 °FSunny.13 mph39%29.98 "Hg10 mi
8:30 AM79 °FSunny.8 mph42%29.98 "Hg10 mi
8:00 AM75 °FSunny.6 mph47%30.01 "Hg10 mi
6:30 AM73 °FClear.7 mph47%29.98 "Hg10 mi
6:00 AM73 °FClear.10 mph47%29.98 "Hg10 mi
5:30 AM75 °FClear.12 mph44%30.01 "Hg10 mi
5:00 AM75 °FClear.9 mph44%30.01 "Hg10 mi
4:30 AM75 °FPassing clouds.7 mph44%30.01 "HgN/A
4:00 AM75 °FClear.2 mph41%30.01 "Hg10 mi
3:30 AM75 °FClear.2 mph44%30.01 "Hg10 mi
3:00 AM75 °FClear.1 mph44%30.01 "Hg10 mi
2:30 AM75 °FClear.2 mph44%30.01 "Hg10 mi
2:00 AM75 °FClear.2 mph44%30.01 "Hg10 mi
12:30 AM77 °FClear.7 mph42%30.01 "Hg10 mi
12:00 AM79 °FClear.9 mph39%30.01 "Hg10 mi
11:30 PM
Mon, Aug 31
81 °FClear.9 mph37%30.01 "Hg10 mi
11:00 PM79 °FClear.9 mph42%30.01 "Hg10 mi
10:30 PM82 °FClear.7 mph37%30.01 "Hg10 mi
10:00 PM81 °FClear.7 mph42%30.01 "Hg10 mi
9:30 PM82 °FClear.9 mph40%30.01 "Hg10 mi
9:00 PM84 °FClear.8 mph37%30.01 "Hg10 mi
8:30 PM86 °FPassing clouds.8 mph35%30.01 "HgN/A
8:00 PM88 °FPassing clouds.9 mph33%30.01 "HgN/A
7:30 PM90 °FPassing clouds.8 mph31%30.01 "HgN/A
7:00 PM91 °FPassing clouds.9 mph30%30.01 "HgN/A
6:30 PM93 °FPassing clouds.10 mph26%30.01 "HgN/A
6:00 PM95 °FPassing clouds.9 mph25%30.01 "HgN/A
5:30 PM95 °FPassing clouds.9 mph26%30.04 "HgN/A
5:00 PM95 °FPassing clouds.9 mph26%30.04 "HgN/A
4:30 PM95 °FScattered clouds.10 mph26%30.04 "HgN/A
4:00 PM95 °FScattered clouds.10 mph26%30.04 "HgN/A
3:30 PM95 °FPassing clouds.9 mph26%30.07 "HgN/A
3:00 PM95 °FPassing clouds.8 mph26%30.07 "HgN/A
2:30 PM95 °FPassing clouds.9 mph26%30.07 "HgN/A
2:00 PM93 °FPassing clouds.8 mph28%30.07 "HgN/A
1:30 PM93 °FPassing clouds.10 mph28%30.07 "HgN/A
1:00 PM91 °FPassing clouds.9 mph32%30.09 "HgN/A
12:30 PM90 °FPassing clouds.9 mph33%30.09 "HgN/A
12:00 PM88 °FPassing clouds.10 mph38%30.09 "HgN/A
11:30 AM88 °FPassing clouds.12 mph38%30.09 "HgN/A
11:00 AM84 °FPassing clouds.9 mph43%30.12 "HgN/A
Weather by CustomWeather, © 2015

See weather overviewHow to use our weather pages